Total_Precipitation_Accumulation
2.20 2.37 2.36 1.63 1.33 1.23 1.24 1.20 1.18 1.14 1.14 1.20 1.30 1.42 1.35 1.41 1.52 1.55 1.66 1.89 1.98 2.14 2.47 2.64 2.67 2.51 2.23 2.01 1.90 1.70 1.44 1.45 1.54 1.56 1.54 1.58 1.65 1.90 2.33 2.19 2.03 1.49 1.41
1.66 1.87 1.97 1.48 1.15 1.10 1.08 1.09 1.07 1.05 1.03 1.01 1.14 1.33 1.41 1.55 1.70 1.70 1.84 2.04 2.25 2.54 2.57 2.50 2.39 2.12 1.98 1.76 1.62 1.52 1.43 1.52 1.63 1.66 1.57 1.42 1.70 2.08 2.36 2.21 2.19 1.45 1.38
1.21 1.34 1.29 1.29 1.07 0.95 0.96 1.00 1.01 1.00 0.95 0.89 1.01 1.27 1.45 1.70 1.96 1.98 2.05 2.27 2.56 2.56 2.44 2.37 2.05 1.78 1.65 1.45 1.39 1.39 1.43 1.57 1.69 1.90 1.91 1.39 1.34 2.06 2.17 2.02 1.66 1.23 1.23
0.96 0.97 0.89 0.99 0.98 0.91 0.91 0.89 0.87 0.90 0.89 0.90 1.01 1.23 1.41 1.60 1.87 1.97 2.12 2.34 2.51 2.38 2.31 2.03 1.75 1.55 1.38 1.21 1.19 1.23 1.34 1.55 1.85 2.22 2.21 1.67 1.08 1.59 1.89 1.71 1.43 1.18 1.13
0.87 0.81 0.93 0.96 0.90 0.88 0.83 0.85 0.86 0.87 0.86 0.91 1.00 1.17 1.33 1.57 1.82 1.96 2.02 2.23 2.24 2.08 1.98 1.80 1.61 1.34 1.17 1.06 1.04 1.15 1.34 1.64 1.88 2.08 1.90 1.79 1.57 1.66 1.70 1.61 1.44 1.35 1.24
0.83 0.82 0.88 0.93 0.88 0.89 0.83 0.77 0.82 0.84 0.89 0.94 1.10 1.25 1.34 1.60 1.79 1.83 1.94 2.21 2.13 1.97 1.84 1.69 1.45 1.18 1.02 0.93 0.98 1.08 1.29 1.66 1.67 1.41 1.42 1.54 1.45 1.56 1.57 1.67 1.56 1.40 1.28
0.99 1.01 0.94 0.97 0.96 0.90 0.79 0.72 0.77 0.80 0.89 0.96 1.11 1.27 1.34 1.48 1.60 1.75 1.95 2.07 1.97 1.81 1.65 1.51 1.32 1.10 1.04 1.05 1.03 1.04 1.30 1.58 1.40 1.23 1.31 1.66 1.48 1.25 1.52 1.76 1.71 1.49 1.30
1.01 1.07 1.04 1.11 1.08 1.02 0.86 0.76 0.82 0.90 0.97 1.04 1.11 1.18 1.25 1.33 1.45 1.65 1.91 1.99 1.84 1.56 1.44 1.41 1.27 1.12 1.08 1.11 1.03 1.06 1.29 1.36 1.10 1.16 1.12 1.28 1.14 1.16 1.47 1.70 1.70 1.56 1.40
1.19 1.15 1.14 1.16 1.04 1.09 1.05 0.93 0.96 1.09 1.13 1.11 1.13 1.13 1.18 1.30 1.44 1.63 1.91 1.99 1.78 1.49 1.38 1.32 1.26 1.14 1.04 1.08 1.10 1.18 1.37 1.51 1.37 1.40 1.05 1.19 1.14 1.31 1.60 1.75 1.74 1.66 1.61
1.62 1.41 1.32 1.39 1.33 1.18 1.14 1.13 1.23 1.29 1.30 1.27 1.22 1.28 1.38 1.56 1.59 1.78 1.92 1.92 1.74 1.52 1.42 1.32 1.30 1.16 1.10 1.10 1.14 1.35 1.63 1.50 1.16 1.24 1.28 1.13 1.23 1.57 1.93 1.90 1.90 1.91 1.88
1.96 1.74 1.52 1.39 1.32 1.25 1.20 1.29 1.62 1.64 1.55 1.52 1.56 1.60 1.70 2.01 2.09 2.27 2.10 2.05 1.83 1.70 1.69 1.59 1.59 1.47 1.31 1.21 1.36 1.60 1.57 1.38 1.42 1.50 1.44 1.22 1.45 1.87 2.21 2.18 2.14 2.12 2.11
2.13 1.80 1.73 1.61 1.45 1.35 1.20 1.36 1.85 1.71 1.65 1.81 1.97 1.89 2.14 2.57 2.84 2.48 2.48 2.48 2.42 2.37 2.24 2.23 2.29 1.90 1.54 1.60 2.11 2.16 1.51 1.47 1.65 1.69 1.64 1.57 1.86 2.32 2.57 2.54 2.51 2.33 2.28
2.31 1.97 1.86 1.76 1.68 1.68 1.78 1.62 1.80 1.91 2.03 2.12 2.13 2.21 2.43 2.50 2.70 2.83 2.88 2.89 2.94 2.79 2.59 2.79 2.74 2.13 2.14 2.55 2.67 2.36 1.81 1.78 1.95 1.86 1.97 2.04 2.12 2.65 3.13 3.03 2.95 2.69 2.50
2.56 2.25 2.04 1.90 1.90 1.99 1.94 1.91 1.90 1.97 2.05 2.24 2.39 2.39 2.67 3.07 3.19 3.32 3.30 3.10 3.18 3.17 3.34 3.29 3.32 2.86 2.86 2.65 2.56 2.49 2.28 2.32 2.21 2.43 2.86 2.56 2.29 2.66 3.42 3.53 3.42 3.11 2.72
2.73 2.41 2.36 2.09 2.02 2.07 2.25 2.39 2.13 2.39 2.43 2.48 2.71 2.86 2.99 3.32 3.42 3.51 3.46 3.43 3.10 3.13 3.34 3.68 3.54 3.73 3.71 3.28 2.82 2.65 2.63 2.64 2.59 2.71 3.01 3.04 2.83 2.93 3.72 4.20 4.08 3.74 3.27
2.71 2.52 2.47 2.33 2.36 2.44 2.50 2.64 2.73 2.90 3.02 2.94 2.96 3.08 3.17 3.40 3.77 3.81 3.75 3.69 3.28 3.13 3.43 3.76 3.75 4.27 4.16 3.96 3.40 3.04 2.83 2.80 2.76 2.87 3.21 3.41 3.31 3.25 3.73 4.33 4.59 4.52 4.07
2.52 2.59 2.71 2.80 3.01 3.12 3.13 3.13 3.10 3.25 3.31 3.42 3.71 3.78 3.84 3.78 3.94 3.81 3.80 3.63 3.51 3.43 3.60 3.67 3.80 4.23 4.00 3.96 3.81 3.48 3.25 3.02 2.84 3.05 3.44 3.80 3.40 3.31 3.69 4.23 4.66 4.66 4.50
2.59 2.65 2.87 2.92 3.32 3.51 3.62 3.73 3.66 3.66 3.68 3.93 4.16 4.33 4.28 4.11 3.92 3.99 3.75 3.54 3.62 3.57 3.76 4.08 4.09 4.18 4.33 4.26 4.03 3.72 3.54 3.44 2.98 3.01 3.16 3.36 3.61 3.12 3.53 4.23 4.51 4.29 4.40
2.91 3.16 3.50 3.56 3.53 3.65 3.87 4.04 3.83 3.88 3.88 3.89 4.00 4.26 4.16 3.84 3.71 4.07 3.91 3.89 3.80 4.01 3.92 3.59 4.20 4.42 4.43 4.32 3.72 3.69 3.30 3.26 3.18 2.93 3.05 3.11 3.33 3.28 3.34 3.48 4.09 3.94 4.19
3.26 3.66 3.89 3.90 4.14 4.46 4.68 4.58 4.37 4.06 3.90 3.78 3.82 3.99 3.88 3.80 3.71 4.01 3.80 3.75 3.90 4.30 4.36 4.22 4.51 4.43 4.27 4.32 3.63 3.44 3.16 2.85 2.84 2.81 2.62 2.86 2.93 2.66 2.89 3.15 3.57 3.05 3.32
3.33 3.60 3.89 4.26 4.65 4.78 4.62 4.57 4.57 4.40 4.18 3.78 3.62 3.73 3.76 3.53 3.57 3.94 3.63 4.00 4.03 4.22 4.36 4.30 4.54 4.44 4.20 4.31 4.29 3.70 3.07 2.66 2.58 2.38 2.39 2.63 2.56 2.60 2.94 3.41 3.70 3.56 3.15
3.09 3.39 3.81 4.27 4.61 4.52 4.65 4.90 4.91 4.74 4.15 3.82 3.70 3.69 3.55 3.37 3.32 3.42 3.94 3.91 4.01 4.23 4.30 4.24 4.29 4.07 3.78 4.14 4.47 4.30 3.55 3.08 2.63 2.15 2.39 2.41 2.54 2.83 2.85 2.91 3.37 3.75 3.54
3.06 3.53 3.88 4.20 4.34 4.37 4.59 4.77 4.52 4.37 3.95 3.84 3.82 3.70 3.48 3.39 3.35 3.48 3.74 3.83 3.92 3.80 4.04 4.22 4.02 3.97 3.86 3.89 4.15 4.41 3.91 3.25 2.73 2.40 2.27 2.33 2.69 2.95 2.79 2.74 2.72 2.99 3.07
3.07 3.67 4.11 4.12 4.20 4.07 4.21 4.38 4.25 3.94 3.72 3.59 3.56 3.36 3.23 3.13 3.12 3.24 3.41 3.60 3.74 3.63 3.80 3.65 3.73 3.93 3.97 3.78 3.88 3.81 3.73 3.49 3.30 2.86 2.45 2.34 2.58 2.68 2.65 2.43 2.42 2.75 2.91
2.79 3.21 3.65 4.00 4.08 3.90 3.87 3.98 4.12 3.93 3.63 3.39 3.25 3.18 3.12 3.09 2.91 2.89 3.11 3.33 3.46 3.35 3.32 3.52 3.86 3.81 3.72 3.68 3.81 3.83 3.98 3.80 3.45 3.29 2.91 2.63 2.50 2.26 2.33 2.38 2.35 2.44 2.66
2.59 2.96 3.26 3.49 3.48 3.44 3.42 3.47 3.57 3.62 3.57 3.33 3.13 3.17 3.13 2.96 2.81 2.74 2.83 3.17 3.28 3.22 3.20 3.30 3.39 3.44 3.48 3.65 3.65 3.54 3.77 3.80 3.62 3.66 3.28 2.90 2.60 2.12 2.05 2.13 2.24 2.36 2.49